This is the latest recevied weather packets stored in our database for station/object KK4WXG. If no packets are shown the sender has not sent any weather packets the latest 10 day(s).
| Time | Temp. | Humidity | Pressure | Rain* | Wind** | Luminosity | Snow |
|---|---|---|---|---|---|---|---|
| 1777394329 | 11.67° C | 79% | 1018.2 hPa | 0 mm | - | 386 W/m² | - |
| 1777394024 | 11.11° C | 80% | 1018.6 hPa | 0 mm | - | 199 W/m² | - |
| 1777393725 | 11.11° C | 80% | 1018.4 hPa | 0 mm | - | 144 W/m² | - |
| 1777393420 | 11.11° C | 80% | 1018.6 hPa | 0 mm | - | 108 W/m² | - |
| 1777393117 | 11.11° C | 80% | 1018.6 hPa | 0 mm | - | 145 W/m² | - |
| 1777392813 | 10.56° C | 80% | 1018.6 hPa | 0 mm | - | 108 W/m² | - |
| 1777392508 | 10.56° C | 81% | 1018.7 hPa | 0 mm | - | 98 W/m² | - |
| 1777392204 | 10.56° C | 81% | 1018.5 hPa | 0 mm | - | 108 W/m² | - |
| 1777391899 | 10.56° C | 81% | 1018.9 hPa | 0 mm | - | 115 W/m² | - |
| 1777391595 | 10.56° C | 81% | 1018.9 hPa | 0 mm | - | 114 W/m² | - |
| 1777391291 | 10.56° C | 82% | 1019 hPa | 0 mm | - | 99 W/m² | - |
| 1777390989 | 10.56° C | 82% | 1019.2 hPa | 0 mm | - | 111 W/m² | - |
| 1777390684 | 10.56° C | 82% | 1019 hPa | 0 mm | - | 115 W/m² | - |
| 1777390381 | 10.56° C | 82% | 1019.4 hPa | 0 mm | - | 87 W/m² | - |
| 1777390076 | 10.56° C | 82% | 1019.3 hPa | 0 mm | - | 76 W/m² | - |
| 1777389774 | 10° C | 82% | 1019.2 hPa | 0 mm | - | 88 W/m² | - |
| 1777389470 | 10° C | 82% | 1019.7 hPa | 0 mm | - | 81 W/m² | - |
| 1777389168 | 10° C | 83% | 1019.8 hPa | 0 mm | - | 88 W/m² | - |
| 1777388866 | 10° C | 82% | 1019.7 hPa | 0 mm | - | 67 W/m² | - |
| 1777388562 | 10° C | 83% | 1019.7 hPa | 0 mm | - | 53 W/m² | - |
| 1777388258 | 10° C | 83% | 1019.5 hPa | 0 mm | - | 79 W/m² | - |
| 1777387953 | 10° C | 83% | 1020 hPa | 0 mm | - | 39 W/m² | - |
| 1777387650 | 10° C | 83% | 1019.7 hPa | 0 mm | - | 67 W/m² | - |
| 1777387346 | 10° C | 83% | 1019.9 hPa | 0 mm | - | 77 W/m² | - |
| 1777387046 | 10° C | 82% | 1020.1 hPa | 0 mm | - | 63 W/m² | - |
* Rain latest hour (hover to see other rain measurements)
** Current wind speed in m/s (hover to see current wind gust speed)